EW3084 Weather Reports


time (UTC)temp
C
wind
direction
speed
KPH
gust
KPH
rain 1hr
cm
rain 24hr
cm
rain mn
cm
humidity
%
barometer
mb
20260507084718 11 189 3.2 9.7 0.00 0.00 0.00 42
20260507083603 11 213 1.6 8.0 0.00 0.00 0.00 45
20260507082703 11 196 1.6 8.0 0.00 0.00 0.00 45
20260507081803 11 198 1.6 6.4 0.00 0.00 0.00 46
20260507080903 10 166 4.8 11.3 0.00 0.00 0.00 49
20260507080003 10 168 1.6 9.7 0.00 0.00 0.00 48
20260507075403 10 65 1.6 6.4 0.00 0.00 0.00 48
20260507074503 10 310 3.2 9.7 0.00 0.00 0.00 51
20260507073603 10 34 1.6 4.8 0.00 0.00 0.00 51
20260507072916 9 91 0.0 3.2 0.00 0.00 0.00 54
20260507071803 8 86 1.6 6.4 0.00 0.00 0.00 54
20260507070903 8 86 1.6 6.4 0.00 0.00 0.00 56
20260507070005 7 86 1.6 6.4 0.00 0.00 0.00 56
20260507065403 7 86 1.6 6.4 0.00 0.00 0.00 59
20260507064503 6 86 0.0 4.8 0.00 0.00 0.00 59
20260507063603 6 86 0.0 3.2 0.00 0.00 0.00 60
20260507062703 6 86 0.0 4.8 0.00 0.00 0.00 60
20260507061803 5 86 1.6 4.8 0.00 0.00 0.00 63
20260507060903 5 86 1.6 4.8 0.00 0.00 0.00 65
20260507060003 4 86 0.0 3.2 0.00 0.00 0.00 67
20260507055403 4 86 0.0 3.2 0.00 0.00 0.00 69
20260507054716 3 86 0.0 1.6 0.00 0.00 0.00 71
20260507053603 3 0 0.0 0.0 0.00 0.00 0.00 73
20260507052703 2 0 0.0 0.0 0.00 0.00 0.00 74
20260507051803 2 0 0.0 0.0 0.00 0.00 0.00 73
20260507050903 2 0 0.0 0.0 0.00 0.00 0.00 73
20260507050217 2 0 0.0 0.0 0.00 0.00 0.00 73
20260507045403 2 0 0.0 0.0 0.00 0.00 0.00 73
20260507044503 2 0 0.0 0.0 0.00 0.00 0.00 73
20260507043603 1 0 0.0 0.0 0.00 0.00 0.00 74
20260507042703 1 0 0.0 0.0 0.00 0.00 0.00 75
20260507041803 1 0 0.0 0.0 0.00 0.00 0.00 75
20260507040903 1 0 0.0 0.0 0.00 0.00 0.00 75
20260507040003 1 0 0.0 0.0 0.00 0.00 0.00 75
20260507035403 1 0 0.0 0.0 0.00 0.00 0.00 75
20260507034503 2 0 0.0 0.0 0.00 0.00 0.00 74
20260507033603 2 0 0.0 0.0 0.00 0.00 0.00 74
20260507032703 2 0 0.0 0.0 0.00 0.00 0.00 74
20260507031803 2 0 0.0 0.0 0.00 0.00 0.00 73
20260507030903 2 0 0.0 0.0 0.00 0.00 0.00 72
20260507030003 2 0 0.0 0.0 0.00 0.00 0.00 71
20260507025403 2 0 0.0 0.0 0.00 0.00 0.00 71
20260507024503 2 0 0.0 0.0 0.00 0.00 0.00 71
20260507023603 2 0 0.0 0.0 0.00 0.00 0.00 70
20260507022703 2 0 0.0 0.0 0.00 0.00 0.00 70
20260507021803 2 0 0.0 0.0 0.00 0.00 0.00 68
20260507020903 3 0 0.0 0.0 0.00 0.00 0.00 68
20260507020003 3 0 0.0 0.0 0.00 0.00 0.00 68
20260507015403 3 0 0.0 0.0 0.00 0.00 0.00 69
20260507014503 3 0 0.0 0.0 0.00 0.00 0.00 71
20260507013603 3 0 0.0 0.0 0.00 0.00 0.00 70
20260507012703 3 0 0.0 0.0 0.00 0.00 0.00 69
20260507012017 3 0 0.0 0.0 0.00 0.00 0.00 69
20260507010903 3 0 0.0 0.0 0.00 0.00 0.00 68
20260507010003 3 0 0.0 0.0 0.00 0.00 0.00 67
20260507005403 3 0 0.0 0.0 0.00 0.00 0.00 67
20260507004503 3 86 0.0 1.6 0.00 0.00 0.00 66
20260507003818 3 86 0.0 1.6 0.00 0.00 0.00 66
20260507002703 2 0 0.0 0.0 0.00 0.00 0.00 64
20260507001803 2 0 0.0 0.0 0.00 0.00 0.00 62
20260507000903 2 0 0.0 0.0 0.00 0.00 0.00 61
20260507000003 2 0 0.0 0.0 0.00 0.00 0.00 61
20260506235403 2 0 0.0 0.0 0.00 0.00 0.00 61
20260506234718 2 0 0.0 0.0 0.00 0.00 0.00 60
20260506233603 2 0 0.0 0.0 0.00 0.00 0.00 60
20260506232917 2 0 0.0 0.0 0.00 0.00 0.00 60
20260506231803 3 0 0.0 0.0 0.00 0.00 0.00 59
20260506230903 3 86 0.0 1.6 0.00 0.00 0.00 59
20260506230003 3 0 0.0 0.0 0.00 0.00 0.00 58
20260506225618 3 0 0.0 0.0 0.00 0.00 0.00 58
20260506224503 3 0 0.0 0.0 0.00 0.00 0.00 57
20260506223603 3 85 0.0 1.6 0.00 0.00 0.00 55
20260506222703 3 93 0.0 1.6 0.00 0.00 0.00 54
20260506221803 3 0 0.0 0.0 0.00 0.00 0.00 53
20260506221119 3 0 0.0 0.0 0.00 0.00 0.00 55
20260506220003 4 0 0.0 0.0 0.00 0.00 0.00 55
20260506215403 4 0 0.0 0.0 0.00 0.00 0.00 54
20260506214503 4 0 0.0 0.0 0.00 0.00 0.00 51
20260506213603 5 0 0.0 0.0 0.00 0.00 0.00 52
20260506212916 5 129 0.0 1.6 0.00 0.00 0.00 51
20260506212015 5 0 0.0 0.0 0.00 0.00 0.00 49
20260506210903 6 137 0.0 6.4 0.00 0.00 0.00 44
20260506210218 6 184 0.0 9.7 0.00 0.00 0.00 42
20260506205403 7 183 1.6 9.7 0.00 0.00 0.00 41
20260506204503 7 163 1.6 11.3 0.00 0.00 0.00 39
20260506203603 7 176 3.2 19.3 0.00 0.00 0.00 38
20260506202703 7 170 3.2 16.1 0.00 0.00 0.00 39
20260506201803 7 154 3.2 19.3 0.00 0.00 0.00 42
20260506200903 7 131 3.2 14.5 0.00 0.00 0.00 44
20260506200003 7 141 1.6 9.7 0.00 0.00 0.00 45
20260506195403 7 127 1.6 9.7 0.00 0.00 0.00 46
20260506194503 7 138 1.6 9.7 0.00 0.00 0.00 45
20260506193605 7 152 0.0 8.0 0.00 0.00 0.00 47
20260506192703 7 131 1.6 9.7 0.00 0.00 0.00 48
20260506191803 7 99 0.0 4.8 0.00 0.00 0.00 49
20260506190903 7 101 0.0 3.2 0.00 0.00 0.00 44
20260506190003 7 132 0.0 3.2 0.00 0.00 0.00 44
20260506185403 7 277 0.0 3.2 0.00 0.00 0.00 42
20260506184503 8 287 1.6 3.2 0.00 0.00 0.00 40
20260506183603 8 287 0.0 3.2 0.00 0.00 0.00 40
20260506182703 9 288 0.0 1.6 0.00 0.00 0.00 38
20260506181803 10 0 0.0 0.0 0.00 0.00 0.00 35
20260506180903 12 287 1.6 4.8 0.00 0.00 0.00 29
20260506180004 12 287 3.2 4.8 0.00 0.00 0.00 27
20260506175403 12 288 3.2 6.4 0.00 0.00 0.00 26
20260506174503 12 291 3.2 6.4 0.00 0.00 0.00 27
20260506173603 12 278 4.8 11.3 0.00 0.00 0.00 26
20260506172919 12 272 4.8 11.3 0.00 0.00 0.00 27
20260506171803 13 292 6.4 16.1 0.00 0.00 0.00 25
20260506170903 13 266 6.4 16.1 0.00 0.00 0.00 25
20260506170217 13 285 6.4 9.7 0.00 0.00 0.00 25
20260506165403 13 295 6.4 19.3 0.00 0.00 0.00 26
20260506164716 13 278 8.0 19.3 0.00 0.00 0.00 25
20260506163603 13 263 3.2 16.1 0.00 0.00 0.00 25
20260506162918 13 252 3.2 8.0 0.00 0.00 0.00 24
20260506161803 13 277 6.4 14.5 0.00 0.00 0.00 23
20260506160903 13 268 6.4 19.3 0.00 0.00 0.00 24
20260506160003 13 278 8.0 16.1 0.00 0.00 0.00 22
20260506155403 13 268 8.0 24.1 0.00 0.00 0.00 22
20260506154503 13 280 8.0 24.1 0.00 0.00 0.00 23
20260506153603 13 267 6.4 17.7 0.00 0.00 0.00 23
20260506152703 14 269 8.0 19.3 0.00 0.00 0.00 23
20260506151803 14 268 4.8 19.3 0.00 0.00 0.00 22
20260506150903 13 265 4.8 14.5 0.00 0.00 0.00 22
20260506150003 13 265 4.8 11.3 0.00 0.00 0.00 24
20260506145403 13 303 4.8 11.3 0.00 0.00 0.00 26
20260506144503 12 283 3.2 8.0 0.00 0.00 0.00 24
20260506143603 12 284 4.8 8.0 0.00 0.00 0.00 24
20260506142703 12 268 6.4 16.1 0.00 0.00 0.00 23
20260506142017 13 264 8.0 19.3 0.00 0.00 0.00 24
20260506140903 13 270 6.4 27.4 0.00 0.00 0.00 23
20260506140003 13 285 1.6 8.0 0.00 0.00 0.00 25
20260506135403 12 336 1.6 4.8 0.00 0.00 0.00 27
20260506134503 12 279 3.2 8.0 0.00 0.00 0.00 25
20260506133603 12 156 4.8 16.1 0.00 0.00 0.00 24
20260506132703 13 178 6.4 12.9 0.00 0.00 0.00 23
20260506131803 12 146 4.8 19.3 0.00 0.00 0.00 24
20260506130903 12 284 3.2 8.0 0.00 0.00 0.00 24
20260506130003 12 244 4.8 17.7 0.00 0.00 0.00 23
20260506125403 12 185 3.2 12.9 0.00 0.00 0.00 24
20260506124503 12 285 1.6 6.4 0.00 0.00 0.00 25
20260506123603 12 250 3.2 9.7 0.00 0.00 0.00 25
20260506122703 13 232 6.4 17.7 0.00 0.00 0.00 23
20260506121803 13 279 3.2 11.3 0.00 0.00 0.00 24
20260506120903 12 301 3.2 11.3 0.00 0.00 0.00 26
20260506120219 12 263 3.2 11.3 0.00 0.00 0.00 27
20260506115403 11 258 4.8 11.3 0.00 0.00 0.00 24
20260506114503 12 220 4.8 14.5 0.00 0.00 0.00 25
20260506113817 12 163 4.8 17.7 0.00 0.00 0.00 24
20260506112703 12 216 4.8 11.3 0.00 0.00 0.00 26
20260506111803 12 209 4.8 16.1 0.00 0.00 0.00 25
20260506110903 12 193 4.8 16.1 0.00 0.00 0.00 25
20260506110218 12 203 4.8 14.5 0.00 0.00 0.00 27
20260506105403 11 306 1.6 6.4 0.00 0.00 0.00 27
20260506104503 10 270 1.6 6.4 0.00 0.00 0.00 27
20260506103603 10 267 3.2 12.9 0.00 0.00 0.00 26
20260506102916 11 274 6.4 14.5 0.00 0.00 0.00 27
20260506101803 11 249 3.2 11.3 0.00 0.00 0.00 29
20260506100903 10 280 4.8 11.3 0.00 0.00 0.00 26
20260506100218 10 277 4.8 11.3 0.00 0.00 0.00 29
20260506095403 10 240 3.2 9.7 0.00 0.00 0.00 28
20260506094503 10 266 3.2 9.7 0.00 0.00 0.00 30
20260506093603 11 280 3.2 11.3 0.00 0.00 0.00 28
20260506092703 11 247 3.2 9.7 0.00 0.00 0.00 28
20260506091803 11 278 4.8 11.3 0.00 0.00 0.00 28
20260506090903 11 272 3.2 8.0 0.00 0.00 0.00 28
20260506090003 11 187 4.8 14.5 0.00 0.00 0.00 30
20260506085403 11 139 4.8 14.5 0.00 0.00 0.00 30